Погода в Старых Казанчах

Россия / Республика Башкортостан     56°12′21″N   56°13′20″E
темп.,
°C
ветер,
м/с
пор.,
м/с
влажн.,
%
обл.,
%
осадки,
мм/ч
давл.,
гПа
погр.,
м
21 апреля, ср
ср2123:00+4зсз11444 0.0 103310
02:00+2св01480 0.0 103210
05:00+1юв11560 0.0 103310
08:00+4юв12470 0.0 1033102
11:00+9ююв333745 0.0 1032771
14:00+12ю443166 0.0 10321281
17:00+13ю4630100 0.0 10301364
20:00+9ю3347100 0.0 103029
22 апреля, чт
чт2223:00+7юв3351100 0.0 102935
02:00+6ююв31156100 0.0 1029268
05:00+5ююв51359100 0.0 1030388
08:00+6ю61264100 0.0 1030828
11:00+6ю81279100 0.1 10301010
14:00+6ю61183100 0.1 1031973
17:00+9ююз5966100 0.1 10301288
20:00+7ююз71077100 0.1 1031904
23 апреля, пт
пт2323:00+4ю51196100 1.6 1031672
02:00+2ююв41199100 3.9 1030503
05:00+2ю31099100 5.6 1030492
08:00+3ююв4897100 2.1 1030573
11:00+4ююв2593100 2.3 1030441
14:00+5юв3688100 0.1 1030673
17:00+8ююв137799 0.1 1029612
20:00+7всв3688100 0.0 1028142
24 апреля, сб
сб2423:00+6в41087100 0.0 1026228
02:00+6вюв4886100 0.0 1024174
05:00+6ю2493100 0.1 1023104
08:00+6вюв3797100 1.3 1021233
11:00+7юв3892100 2.1 1020468
14:00+8юв6979100 0.3 10181051
17:00+9всв3673100 0.6 1016927
20:00+9юв2478100 0.0 101499
25 апреля, вс
вс2523:00+6ююв2292100 0.1 101461
02:00+6юв3889100 0.1 1013295
05:00+6ююв4994100 0.8 1013473
08:00+6ю4995100 1.8 1013528
11:00+10ю57688 1.8 1012985
14:00+8ююз71088100 0.8 10121006
17:00+11зюз610555 1.8 10131765
20:00+8з47685 0.0 1014148